Weather History for Hatteras, NC

Change the Weather History Date:

Wednesday, June 19, 2013

  Actual Average Record
Temperature  
Mean Temperature 74 °F 76 °F  
Max Temperature 77 °F 82 °F 92 °F (1984)
Min Temperature 70 °F 70 °F 57 °F (1986)
Degree Days  
Heating Degree Days 0 0  
Month to date heating degree days 0 0  
Since 1 June heating degree days 0 0  
Since 1 July heating degree days 2420 2584  
Cooling Degree Days 9 11  
Month to date cooling degree days 239 173  
Year to date cooling degree days 401 316  
Since 1 June cooling degree days 239 173  
Growing Degree Days 23 (Base 50)    
Moisture  
Dew Point 68 °F    
Average Humidity 83    
Maximum Humidity 97    
Minimum Humidity 68    
Precipitation  
Precipitation 0.00 in 0.13 in 0.99 in (1999)
Month to date precipitation 3.57 2.45  
Year to date precipitation 22.76 23.69  
Snow  
Snow 0.00 in - - ()
Month to date snowfall 0.0  
Since 1 July snowfall 0.0  
Snow Depth 0.00 in    
Sea Level Pressure  
Sea Level Pressure 29.95 in    
Wind  
Wind Speed 10 mph (North)    
Max Wind Speed 20 mph    
Max Gust Speed 28 mph    
Visibility 9 miles    
Events Rain    
T = Trace of Precipitation, MM = Missing Value Source: NWS Daily Summary

Daily Weather History Graph

Daily Weather History Graph

Search for Another Location

Airport:

Trip Planner

Search our weather history database for the weather conditions in past years. The results will help you decide how hot, cold, wet, or windy it might be!

Date:

Astronomy

Jun. 19, 2013 Rise Set
Actual Time 5:47 AM EDT 8:19 PM EDT
Civil Twilight 5:18 AM EDT 8:49 PM EDT
Nautical Twilight 4:41 AM EDT 9:26 PM EDT
Astronomical Twilight 4:00 AM EDT 10:07 PM EDT
Moon 4:15 PM EDT (6/19) 2:23 AM EDT (6/19)
Length of Visible Light 15h 31m
Length of Day
14h 32m
Waxing Gibbous, 80% of the Moon is Illuminated
Jun 19
Waxing Gibbous
Jun 23
Full
Jun 30
Last Quarter
Jul 8
New
Jul 15
First Quarter

Hourly Weather History & Observations

Time (EDT) Temp. Dew Point Humidity Pressure Visibility Wind Dir Wind Speed Gust Speed Precip Events Conditions
12:51 AM 75.9 °F 72.0 °F 87% 29.85 in 7.0 mi SW 15.0 mph 23.0 mph N/A   Clear
1:25 AM 75.2 °F 71.6 °F 89% 29.84 in 7.0 mi SW 11.5 mph - N/A   Mostly Cloudy
1:47 AM 77.0 °F 71.6 °F 83% 29.83 in 8.0 mi SW 16.1 mph 25.3 mph N/A   Mostly Cloudy
1:51 AM 77.0 °F 73.0 °F 88% 29.83 in 7.0 mi WSW 13.8 mph 21.9 mph N/A   Mostly Cloudy
2:51 AM 75.9 °F 71.1 °F 85% 29.83 in 9.0 mi West 12.7 mph 18.4 mph N/A   Scattered Clouds
3:51 AM 75.0 °F 72.0 °F 90% 29.86 in 10.0 mi WSW 12.7 mph - N/A   Scattered Clouds
4:22 AM 73.4 °F 71.6 °F 94% 29.85 in 6.0 mi West 10.4 mph 18.4 mph N/A   Mostly Cloudy
4:30 AM 73.4 °F 71.6 °F 94% 29.85 in 6.0 mi West 10.4 mph 18.4 mph N/A   Overcast
4:38 AM 75.2 °F 71.6 °F 89% 29.85 in 10.0 mi West 8.1 mph 17.3 mph N/A   Overcast
4:46 AM 75.2 °F 73.4 °F 94% 29.84 in 10.0 mi West 10.4 mph 18.4 mph N/A Rain Light Rain
4:51 AM 75.0 °F 72.0 °F 90% 29.84 in 10.0 mi West 11.5 mph 19.6 mph N/A   Mostly Cloudy
4:58 AM 75.2 °F 71.6 °F 89% 29.84 in 10.0 mi West 11.5 mph 20.7 mph N/A   Mostly Cloudy
5:05 AM 75.2 °F 71.6 °F 89% 29.84 in 10.0 mi West 8.1 mph 17.3 mph N/A   Scattered Clouds
5:27 AM 75.2 °F 71.6 °F 89% 29.85 in 10.0 mi West 9.2 mph - N/A   Mostly Cloudy
5:51 AM 75.0 °F 72.0 °F 90% 29.85 in 10.0 mi WNW 6.9 mph - N/A   Overcast
6:11 AM 75.2 °F 71.6 °F 89% 29.86 in 10.0 mi WNW 6.9 mph - N/A   Overcast
6:20 AM 75.2 °F 69.8 °F 83% 29.88 in 10.0 mi NW 6.9 mph - N/A   Overcast
6:28 AM 75.2 °F 69.8 °F 83% 29.88 in 10.0 mi NW 5.8 mph - N/A   Overcast
6:51 AM 75.0 °F 70.0 °F 84% 29.90 in 10.0 mi NW 8.1 mph - N/A   Overcast
7:33 AM 73.4 °F 71.6 °F 94% 29.91 in 9.0 mi Variable 5.8 mph - N/A Rain Light Rain
7:44 AM 71.6 °F 69.8 °F 94% 29.92 in 4.0 mi NNE 10.4 mph 16.1 mph N/A Rain Light Rain
7:51 AM 71.1 °F 68.0 °F 90% 29.93 in 2.0 mi NNE 8.1 mph 19.6 mph N/A Rain Light Rain
8:35 AM 69.8 °F 68.0 °F 94% 29.95 in 3.0 mi NNE 10.4 mph 19.6 mph N/A Rain Light Rain
8:51 AM 70.0 °F 68.0 °F 93% 29.95 in 4.0 mi NNE 8.1 mph 19.6 mph N/A Rain Light Rain
8:58 AM 69.8 °F 68.0 °F 94% 29.95 in 7.0 mi NE 12.7 mph 19.6 mph N/A Rain Light Rain
9:21 AM 69.8 °F 66.2 °F 88% 29.96 in 10.0 mi NE 10.4 mph - N/A   Overcast
9:51 AM 70.0 °F 66.0 °F 87% 29.96 in 10.0 mi NE 10.4 mph 16.1 mph N/A   Overcast
10:51 AM 73.0 °F 66.9 °F 81% 29.98 in 10.0 mi NE 4.6 mph - N/A   Overcast
11:24 AM 73.4 °F 66.2 °F 78% 30.00 in 10.0 mi NE 6.9 mph - N/A   Overcast
11:36 AM 73.4 °F 66.2 °F 78% 30.00 in 10.0 mi Variable 5.8 mph - N/A   Overcast
11:51 AM 73.9 °F 66.0 °F 76% 30.00 in 10.0 mi ENE 9.2 mph - N/A   Overcast
12:51 PM 75.0 °F 66.0 °F 73% 30.02 in 10.0 mi NE 9.2 mph - N/A   Overcast
1:51 PM 75.0 °F 66.0 °F 73% 30.02 in 10.0 mi NE 8.1 mph - N/A   Overcast
2:51 PM 73.9 °F 66.0 °F 76% 30.03 in 10.0 mi NNE 10.4 mph 16.1 mph N/A   Overcast
3:51 PM 75.0 °F 64.9 °F 71% 30.03 in 10.0 mi NE 9.2 mph 16.1 mph N/A   Overcast
4:51 PM 73.9 °F 64.9 °F 73% 30.03 in 10.0 mi NE 12.7 mph 23.0 mph N/A   Overcast
5:19 PM 73.4 °F 64.4 °F 73% 30.03 in 10.0 mi NE 10.4 mph 25.3 mph N/A   Scattered Clouds
5:51 PM 73.0 °F 63.0 °F 71% 30.03 in 10.0 mi NNE 13.8 mph 20.7 mph N/A   Scattered Clouds
6:07 PM 73.4 °F 64.4 °F 73% 30.03 in 10.0 mi NE 12.7 mph 20.7 mph N/A   Mostly Cloudy
6:51 PM 71.1 °F 63.0 °F 75% 30.05 in 10.0 mi NE 9.2 mph 19.6 mph N/A   Mostly Cloudy
7:51 PM 70.0 °F 63.0 °F 78% 30.08 in 10.0 mi ENE 9.2 mph 17.3 mph N/A   Overcast
8:51 PM 70.0 °F 63.0 °F 78% 30.08 in 10.0 mi NE 9.2 mph - N/A   Mostly Cloudy
9:09 PM 69.8 °F 62.6 °F 78% 30.08 in 10.0 mi ENE 9.2 mph 17.3 mph N/A   Scattered Clouds
9:51 PM 70.0 °F 63.0 °F 78% 30.09 in 10.0 mi NE 10.4 mph 19.6 mph N/A   Partly Cloudy
10:51 PM 70.0 °F 64.0 °F 81% 30.11 in 10.0 mi NE 9.2 mph 17.3 mph N/A   Clear
11:51 PM 70.0 °F 64.0 °F 81% 30.11 in 10.0 mi ENE 8.1 mph - N/A   Clear